Wind_Speed
17 21 22 23 19 19 17 22 25 33 39 41 35 35 34 40 33 37 18 20 22 29 30 33 33 40 51 54 55 59 65 70 71 74 73 72 71 70 69 66 64 60 56 55
18 22 25 26 23 24 25 29 33 34 43 39 38 36 32 34 34 29 18 20 30 23 25 31 36 41 42 47 55 59 64 68 73 72 74 73 72 73 71 70 67 62 59 60
24 25 31 28 31 28 31 33 39 40 44 40 38 40 39 42 40 36 32 24 25 27 30 32 35 37 39 42 46 50 57 64 69 73 78 78 76 76 75 73 72 70 69 68
26 30 37 34 33 30 34 35 40 42 48 42 42 40 43 44 43 41 31 33 31 31 35 37 41 45 50 51 52 51 56 63 69 73 78 80 79 79 80 78 77 75 73 70
27 35 36 43 38 38 39 37 46 44 48 46 44 43 45 45 47 46 44 46 47 40 41 43 45 43 43 44 46 47 49 54 63 69 74 79 83 83 83 82 83 83 82 78
30 36 47 45 45 40 37 43 40 44 45 44 47 48 50 48 51 50 51 50 50 50 49 51 50 48 48 50 52 52 51 51 55 59 63 69 74 77 80 80 80 79 80 81
34 36 45 49 51 49 44 42 45 43 43 42 45 43 41 43 48 52 50 52 51 53 54 52 55 54 51 47 48 48 48 51 54 56 60 63 65 67 69 71 73 76 78 80
40 40 44 51 53 52 53 48 44 48 46 49 48 46 43 40 40 41 51 52 50 52 53 53 54 53 52 52 56 54 53 53 50 51 53 55 57 61 64 69 73 74 75 74
41 41 52 54 55 53 55 57 52 47 51 47 49 50 49 43 45 50 42 49 51 52 58 54 56 58 57 55 58 59 58 57 59 59 60 60 58 57 59 61 63 65 66 69
41 46 51 59 58 58 57 56 60 59 55 51 47 48 48 51 53 53 48 48 47 49 54 58 57 56 58 58 56 56 58 61 64 66 67 67 66 66 67 69 70 67 70 71
42 48 50 52 58 60 61 61 59 59 55 52 55 50 49 54 57 57 54 54 54 55 54 56 59 61 63 65 65 64 66 67 67 69 71 74 75 75 76 76 76 78 79 79
41 45 49 51 53 57 60 62 62 62 62 61 61 60 59 60 60 60 60 61 61 62 65 65 66 69 68 69 71 71 73 75 77 77 77 78 79 79 80 81 83 83 83 83
39 42 46 48 53 54 57 59 61 60 60 61 62 62 62 62 66 69 69 68 68 69 69 69 70 71 73 77 79 80 81 81 80 81 81 79 79 81 83 84 86 89 89 90
36 40 43 48 48 50 53 53 53 55 58 59 60 61 63 64 65 66 68 69 71 73 75 76 77 78 78 79 80 81 81 82 82 83 84 84 85 86 86 87 89 90 90 90
34 37 41 42 42 48 51 53 52 52 53 55 57 59 62 64 67 70 71 73 76 78 79 79 80 79 78 78 79 79 79 80 80 81 82 84 85 86 87 87 89 90 91 91
30 35 37 38 38 39 42 45 47 49 51 54 56 58 59 61 64 68 71 74 76 77 77 77 78 78 78 79 77 76 76 77 78 79 80 82 83 84 84 85 85 85 86 88
29 32 34 35 35 36 38 39 41 44 47 51 54 57 58 59 60 61 63 65 67 69 71 72 73 74 74 75 75 75 74 75 75 77 78 79 81 82 83 84 84 84 85 86
26 29 31 31 32 33 35 38 41 44 46 48 50 51 52 53 55 58 61 63 65 67 68 70 70 72 73 74 74 75 75 75 75 75 76 76 78 78 79 81 82 83 84 84
22 24 27 29 31 33 36 38 39 41 44 46 47 50 53 55 57 59 61 63 65 67 68 70 71 72 72 73 73 73 74 73 74 75 76 76 76 76 76 77 79 80 81 82
20 21 22 24 25 27 30 33 35 38 40 43 46 48 50 53 55 58 61 63 64 66 68 69 70 71 71 71 71 70 70 72 73 73 74 75 76 77 77 76 76 76 77 77
16 17 19 21 22 24 26 28 31 35 38 41 44 48 51 55 57 60 62 64 65 66 67 68 68 67 65 66 66 67 67 66 66 67 67 68 70 72 73 73 73 74 75 76
13 14 15 16 19 21 25 28 31 36 40 45 49 52 55 58 60 62 64 66 67 68 67 67 67 67 67 65 64 63 61 60 59 59 60 62 64 66 68 70 70 71 72 73
9 10 12 15 19 23 27 31 36 40 43 46 50 54 57 59 60 61 65 65 67 67 66 66 67 67 66 64 62 60 58 57 57 56 56 57 58 59 61 63 65 66 67 69
8 11 14 18 22 26 29 31 36 40 45 49 52 56 59 62 64 63 64 65 64 65 65 63 61 60 59 59 58 57 55 53 52 52 52 52 53 54 55 56 57 59 59 59
10 13 16 19 24 27 32 36 41 45 49 53 55 58 60 61 61 63 62 61 61 61 59 57 56 54 54 53 52 51 49 49 49 49 49 50 51 52 53 54 55 56 57 57
12 16 21 25 30 34 39 44 48 51 55 57 57 59 58 59 59 59 59 59 57 56 56 56 54 52 50 49 48 48 47 47 46 46 47 47 48 48 49 51 52 53 54 54
17 22 27 31 36 41 46 50 54 56 57 59 59 57 58 59 59 59 58 57 56 56 55 54 52 50 49 48 47 47 46 45 45 45 45 45 46 46 46 48 49 50 51 51
Wind_Direction
277 268 271 271 266 251 206 180 174 174 165 166 170 173 173 161 169 182 196 193 199 194 209 207 216 229 221 223 225 226 227 226 226 229 233 236 235 237 240 243 245 247 247 250
257 255 249 245 233 223 202 179 178 181 177 182 184 182 189 184 179 165 204 219 208 217 210 215 223 229 228 227 228 229 231 231 230 230 232 236 239 239 240 243 246 247 247 248
239 240 233 236 230 234 208 192 186 188 184 192 195 195 199 191 191 193 206 217 199 215 215 228 234 231 232 234 234 233 229 230 229 230 233 235 237 240 242 244 246 250 249 250
232 234 225 226 229 221 205 202 194 197 193 200 201 202 199 199 204 204 207 211 209 217 218 223 230 232 233 235 239 240 235 231 232 231 233 235 237 239 242 244 246 248 250 250
229 229 227 220 221 223 217 204 202 205 205 202 200 199 199 205 200 207 199 207 216 213 229 219 221 221 226 233 235 239 240 240 237 237 239 240 239 241 242 244 248 252 255 253
234 227 224 229 231 236 235 219 216 209 210 210 203 204 206 211 213 219 208 213 218 219 224 225 229 230 233 236 237 240 236 240 242 242 242 243 245 246 246 247 249 251 252 253
236 231 226 229 231 236 237 224 223 224 220 215 216 220 220 219 224 230 230 224 225 230 234 234 238 239 240 243 241 243 238 240 243 246 246 246 248 248 249 250 250 249 249 250
235 230 233 232 235 234 233 238 233 229 232 227 223 228 232 226 227 234 235 235 234 236 239 242 246 248 249 247 238 239 243 240 240 240 244 245 246 248 248 248 248 245 246 247
236 225 228 231 235 236 235 234 235 239 235 242 238 239 241 241 243 240 237 238 246 247 244 248 249 248 248 245 242 240 241 242 242 243 243 243 241 244 244 244 245 246 246 246
232 227 225 230 235 236 236 238 238 242 244 244 241 245 243 237 238 241 243 247 246 247 250 246 249 250 248 252 253 252 253 252 249 246 244 245 246 249 249 251 252 251 251 250
232 230 229 228 234 239 241 242 241 238 240 243 244 246 242 241 246 249 251 250 254 255 255 255 253 253 254 254 255 255 254 255 255 255 256 255 252 254 253 253 255 253 255 257
236 234 234 232 232 236 241 245 247 244 243 245 248 253 256 256 255 256 258 260 260 260 260 259 259 260 260 258 258 258 258 257 257 257 258 258 257 256 256 257 256 256 256 257
239 238 239 239 238 238 241 244 248 251 254 257 258 259 259 259 259 260 263 264 264 265 266 265 266 265 263 262 263 263 263 263 262 261 261 261 259 258 257 257 256 256 256 256
244 245 243 244 246 245 246 249 252 255 257 260 261 263 266 267 267 267 267 267 267 267 267 266 265 264 263 262 262 262 263 263 263 263 262 262 262 261 260 259 258 258 258 258
245 246 246 249 249 249 250 252 255 257 259 261 264 266 266 266 267 267 267 267 267 266 266 267 268 269 268 268 268 268 267 266 266 265 264 263 263 263 263 263 262 262 261 261
247 249 251 251 252 255 258 258 260 261 263 266 267 266 264 261 259 260 261 261 262 263 265 266 268 270 270 270 270 269 268 267 267 266 265 265 265 265 264 264 263 262 262 262
248 251 253 255 255 256 258 260 260 262 263 264 263 262 264 267 268 269 270 270 271 272 272 273 274 275 275 275 275 275 273 272 270 269 267 266 265 264 264 263 263 262 261 261
247 248 250 250 250 251 254 257 258 260 265 269 270 272 274 276 276 275 275 276 276 277 277 277 278 278 277 277 277 277 277 276 275 274 272 270 269 267 266 264 263 262 261 260
241 242 244 245 248 251 255 261 265 267 269 272 274 274 275 276 277 279 279 280 280 280 281 281 281 281 281 281 280 279 278 278 277 275 274 272 270 269 267 266 264 263 262 261
240 243 246 249 253 257 259 262 266 269 272 273 277 280 282 283 284 284 284 284 285 285 285 285 284 284 283 283 283 282 279 277 276 275 275 274 273 272 271 269 268 267 266 264
242 243 246 250 256 262 267 271 274 279 283 285 286 286 287 288 289 289 290 290 290 290 290 289 289 289 288 286 283 282 281 280 279 277 275 273 272 271 270 268 267 266 265 264
249 254 261 267 271 275 279 283 286 290 292 292 292 291 291 291 291 292 292 292 291 291 291 292 292 291 290 289 289 286 285 283 281 278 275 272 270 269 269 268 268 267 267 266
252 261 270 278 284 289 294 294 292 292 293 293 294 294 294 294 294 295 294 295 295 294 294 293 292 293 293 292 291 290 289 286 284 281 279 276 273 271 269 269 268 268 267 267
273 286 291 293 295 294 294 298 300 302 304 303 302 301 300 299 298 298 298 297 296 295 295 295 294 293 292 292 291 290 289 287 285 283 281 278 277 275 274 272 272 271 270 268
296 300 305 307 307 309 312 314 313 311 309 307 306 304 302 300 301 301 300 299 299 298 298 297 296 296 295 294 293 292 290 288 286 284 282 280 278 276 275 274 273 273 272 272
308 309 314 317 318 319 319 318 317 314 313 312 310 308 307 306 305 304 304 304 303 303 302 302 301 299 298 297 295 294 292 290 288 286 283 281 279 277 276 275 274 273 273 272
313 317 318 319 320 321 321 319 318 317 316 315 314 313 312 311 310 309 308 308 307 305 304 303 303 302 300 299 297 295 293 292 290 288 285 283 282 280 279 277 276 276 276 275
Height
10298 10297 10297 10297 10299 10300 10304 10305 10307 10309 10311 10314 10316 10318 10322 10328 10332 10338 10344 10352 10357 10363 10370 10375 10382 10388 10395 10402 10411 10416 10422 10429 10439 10448 10456 10462 10468 10476 10481 10487 10493 10498 10505 10510
10294 10294 10296 10295 10297 10298 10301 10304 10306 10309 10312 10314 10318 10323 10328 10333 10338 10342 10347 10349 10355 10360 10365 10371 10375 10380 10385 10391 10399 10406 10412 10420 10427 10435 10443 10448 10455 10460 10466 10472 10478 10483 10489 10494
10289 10291 10292 10294 10294 10297 10299 10302 10305 10308 10311 10315 10319 10323 10328 10334 10339 10342 10346 10349 10353 10357 10360 10366 10369 10373 10378 10382 10387 10392 10399 10406 10413 10421 10427 10433 10439 10444 10450 10457 10462 10467 10472 10477
10284 10286 10288 10291 10291 10295 10296 10299 10302 10304 10309 10312 10316 10319 10324 10328 10332 10336 10340 10344 10348 10351 10355 10359 10362 10366 10370 10374 10378 10382 10388 10393 10399 10405 10411 10417 10424 10428 10433 10439 10443 10447 10453 10459
10277 10279 10284 10286 10287 10289 10293 10296 10300 10301 10304 10308 10313 10316 10320 10325 10326 10330 10334 10338 10342 10344 10348 10352 10356 10359 10362 10365 10368 10372 10376 10381 10387 10393 10397 10401 10406 10411 10415 10421 10425 10429 10433 10437
10271 10274 10277 10278 10279 10281 10287 10293 10295 10299 10302 10307 10310 10313 10316 10319 10323 10325 10327 10331 10333 10337 10340 10343 10347 10349 10352 10355 10357 10361 10364 10368 10371 10376 10380 10385 10389 10393 10397 10402 10406 10410 10413 10417
10261 10265 10270 10272 10274 10277 10281 10288 10291 10294 10297 10300 10304 10308 10311 10314 10317 10320 10323 10324 10327 10330 10331 10334 10337 10339 10340 10343 10346 10349 10351 10354 10357 10360 10364 10367 10370 10373 10377 10381 10385 10389 10392 10395
10250 10256 10260 10264 10264 10270 10276 10280 10286 10288 10291 10294 10298 10300 10303 10307 10310 10312 10313 10316 10318 10320 10321 10323 10325 10327 10329 10332 10335 10337 10339 10341 10343 10346 10348 10351 10354 10356 10359 10362 10365 10368 10371 10374
10239 10246 10250 10253 10257 10263 10269 10273 10278 10282 10285 10288 10291 10294 10297 10299 10301 10303 10304 10306 10307 10308 10309 10310 10312 10314 10316 10319 10322 10324 10326 10328 10330 10331 10333 10335 10337 10339 10342 10344 10346 10348 10350 10352
10228 10233 10239 10243 10248 10255 10259 10263 10268 10272 10276 10280 10283 10286 10287 10289 10291 10292 10294 10295 10295 10297 10298 10299 10300 10301 10302 10305 10307 10309 10310 10312 10313 10315 10316 10317 10319 10321 10323 10324 10326 10328 10330 10332
10216 10221 10227 10233 10240 10245 10250 10253 10256 10259 10263 10267 10270 10274 10276 10278 10279 10280 10281 10281 10281 10282 10283 10284 10285 10286 10287 10288 10290 10291 10292 10293 10295 10296 10297 10299 10300 10300 10302 10303 10304 10305 10306 10307
10206 10212 10217 10222 10229 10233 10237 10242 10246 10249 10252 10255 10259 10262 10264 10265 10265 10265 10265 10265 10266 10266 10267 10268 10268 10269 10269 10270 10270 10270 10271 10273 10273 10273 10274 10274 10274 10275 10276 10276 10277 10278 10280 10281
10197 10202 10207 10213 10217 10222 10226 10230 10233 10238 10242 10244 10245 10247 10249 10250 10251 10251 10251 10250 10249 10248 10247 10246 10246 10246 10246 10245 10245 10244 10244 10244 10245 10244 10244 10244 10245 10246 10247 10247 10247 10248 10249 10251
10190 10194 10199 10203 10206 10211 10215 10220 10224 10227 10229 10231 10232 10233 10234 10235 10234 10233 10232 10230 10228 10226 10224 10222 10220 10219 10219 10218 10217 10217 10216 10215 10214 10214 10215 10214 10214 10215 10215 10216 10216 10216 10217 10219
10183 10186 10190 10193 10197 10201 10204 10207 10210 10213 10215 10216 10216 10217 10217 10216 10214 10212 10210 10207 10204 10201 10198 10196 10195 10193 10193 10192 10191 10190 10189 10188 10187 10186 10185 10185 10184 10185 10185 10185 10185 10186 10187 10188
10176 10178 10181 10184 10188 10192 10195 10197 10199 10201 10201 10201 10200 10197 10195 10192 10189 10187 10185 10184 10181 10179 10177 10175 10172 10170 10168 10167 10165 10164 10162 10161 10159 10158 10157 10156 10155 10154 10155 10155 10155 10155 10155 10156
10169 10170 10172 10176 10179 10181 10183 10185 10186 10186 10185 10184 10182 10180 10178 10178 10176 10174 10171 10167 10164 10161 10158 10154 10151 10147 10143 10141 10139 10136 10134 10133 10131 10129 10127 10126 10125 10124 10123 10123 10124 10124 10125 10125
10162 10163 10164 10166 10169 10171 10172 10173 10173 10172 10172 10171 10170 10167 10164 10162 10159 10155 10151 10148 10144 10140 10136 10133 10129 10124 10120 10116 10113 10109 10106 10104 10101 10099 10097 10096 10094 10093 10092 10092 10092 10092 10093 10094
10156 10157 10158 10160 10162 10163 10163 10164 10164 10163 10161 10159 10157 10154 10151 10147 10144 10140 10136 10131 10126 10121 10116 10111 10106 10100 10095 10091 10087 10083 10079 10076 10073 10070 10066 10064 10063 10063 10062 10061 10061 10061 10062 10063
10151 10153 10154 10156 10157 10158 10158 10157 10156 10155 10152 10149 10146 10142 10138 10133 10128 10123 10117 10112 10107 10101 10095 10088 10082 10077 10072 10067 10062 10057 10053 10048 10044 10041 10039 10036 10034 10032 10032 10031 10032 10033 10033 10034
10148 10149 10150 10151 10152 10152 10152 10150 10148 10145 10142 10139 10135 10130 10125 10119 10113 10107 10100 10093 10086 10079 10073 10065 10058 10052 10048 10042 10037 10031 10027 10023 10019 10015 10012 10010 10007 10004 10002 10002 10002 10002 10002 10003
10144 10145 10146 10147 10147 10146 10145 10143 10141 10137 10133 10129 10123 10117 10110 10103 10096 10090 10082 10072 10065 10057 10051 10044 10036 10029 10023 10017 10012 10007 10002 9998 9994 9991 9987 9985 9982 9980 9978 9976 9977 9977 9976 9976
10142 10142 10143 10143 10142 10141 10139 10137 10133 10128 10122 10116 10109 10101 10094 10086 10079 10071 10059 10053 10044 10036 10029 10022 10015 10007 10001 9994 9988 9983 9979 9975 9971 9967 9964 9961 9959 9957 9955 9953 9952 9952 9952 9952
10140 10139 10139 10138 10137 10135 10131 10127 10121 10116 10109 10101 10094 10085 10076 10066 10056 10052 10042 10033 10024 10015 10007 10002 9995 9988 9981 9975 9969 9963 9959 9954 9950 9946 9943 9940 9937 9935 9933 9931 9930 9929 9929 9930
10137 10136 10134 10132 10129 10125 10120 10115 10109 10102 10094 10086 10078 10068 10059 10050 10041 10029 10021 10013 10005 9996 9987 9981 9975 9969 9962 9956 9950 9945 9940 9936 9931 9928 9924 9922 9919 9916 9914 9912 9910 9908 9907 9908
10132 10130 10128 10124 10120 10115 10110 10103 10096 10088 10079 10069 10060 10050 10040 10030 10020 10011 10002 9993 9985 9977 9968 9961 9955 9949 9943 9937 9932 9927 9923 9918 9914 9911 9907 9904 9901 9899 9896 9894 9892 9889 9888 9888
10127 10124 10120 10116 10110 10104 10098 10090 10082 10074 10064 10053 10041 10032 10022 10011 10001 9992 9983 9974 9966 9958 9950 9942 9936 9931 9925 9920 9916 9911 9906 9902 9897 9893 9890 9887 9884 9881 9879 9877 9874 9872 9870 9869